ARG1975 SABE-SUMU

Flight info

Callsign ARG1975
Flight time 0h 25m
Altitude 17000
Route DORVO8 DORVO A305 TOKAM
Aircraft B738/M-SDE2E3FGHIRWXY/LB1

Departure

Time 2026-05-01 13:21
Airport Aeroparque Jorge Newbery (SABE)

Arrival

Time 2026-05-01 13:47
Airport Carrasco General Cesáreo L. Berisso International Airport (SUMU)
Time Latitude Longitude Altitude Speed Heading
2026-05-01 13:07 -34.55737 -58.41365 24 ft 0 kts 33°
2026-05-01 13:13 -34.55755 -58.41377 28 ft 4 kts 15°
2026-05-01 13:13 -34.55779 -58.41377 28 ft 4 kts 330°
2026-05-01 13:13 -34.55798 -58.41356 30 ft 4 kts 305°
2026-05-01 13:14 -34.55803 -58.41348 26 ft 0 kts 305°
2026-05-01 13:16 -34.55788 -58.41373 27 ft 8 kts 307°
2026-05-01 13:16 -34.55750 -58.41436 28 ft 9 kts 301°
2026-05-01 13:17 -34.55806 -58.41574 28 ft 11 kts 135°
2026-05-01 13:17 -34.55849 -58.41481 28 ft 15 kts 118°
2026-05-01 13:18 -34.56001 -58.41180 26 ft 23 kts 127°
2026-05-01 13:18 -34.56084 -58.41045 24 ft 19 kts 126°
2026-05-01 13:18 -34.56156 -58.40909 28 ft 19 kts 120°
2026-05-01 13:18 -34.56215 -58.40772 27 ft 18 kts 116°
2026-05-01 13:19 -34.56275 -58.40644 26 ft 17 kts 123°
2026-05-01 13:19 -34.56350 -58.40540 28 ft 16 kts 138°
2026-05-01 13:19 -34.56515 -58.40389 29 ft 10 kts 187°
2026-05-01 13:20 -34.56550 -58.40446 26 ft 10 kts 282°
2026-05-01 13:20 -34.56534 -58.40487 26 ft 0 kts 301°
2026-05-01 13:21 -34.56489 -58.40571 25 ft 44 kts 303°
2026-05-01 13:21 -34.56168 -58.41141 30 ft 118 kts 304°
2026-05-01 13:21 -34.55596 -58.42169 139 ft 167 kts 306°
2026-05-01 13:21 -34.54953 -58.43265 1186 ft 143 kts 309°
2026-05-01 13:22 -34.54357 -58.44170 2107 ft 144 kts 314°
2026-05-01 13:22 -34.53315 -58.44742 2339 ft 193 kts 358°
2026-05-01 13:22 -34.52000 -58.44116 2870 ft 218 kts 28°
2026-05-01 13:22 -34.50773 -58.42949 3444 ft 232 kts 46°
2026-05-01 13:23 -34.50169 -58.41078 4037 ft 249 kts 78°
2026-05-01 13:23 -34.50216 -58.38940 4677 ft 261 kts 97°
2026-05-01 13:23 -34.50674 -58.36727 5087 ft 281 kts 103°
2026-05-01 13:23 -34.51251 -58.34416 5812 ft 290 kts 104°
2026-05-01 13:24 -34.51834 -58.32069 6768 ft 292 kts 104°
2026-05-01 13:24 -34.52407 -58.29692 7675 ft 296 kts 104°
2026-05-01 13:24 -34.52974 -58.27277 8513 ft 300 kts 104°
2026-05-01 13:25 -34.54147 -58.22314 10132 ft 313 kts 104°
2026-05-01 13:25 -34.54745 -58.19904 10473 ft 334 kts 104°
2026-05-01 13:25 -34.55447 -58.17095 10648 ft 361 kts 104°
2026-05-01 13:25 -34.56200 -58.14091 10960 ft 381 kts 104°
2026-05-01 13:26 -34.56983 -58.10970 11580 ft 390 kts 104°
2026-05-01 13:26 -34.57784 -58.07788 12214 ft 398 kts 103°
2026-05-01 13:26 -34.58595 -58.04540 12865 ft 405 kts 103°
2026-05-01 13:26 -34.59411 -58.01264 13666 ft 407 kts 104°
2026-05-01 13:27 -34.60231 -57.97962 14422 ft 410 kts 103°
2026-05-01 13:27 -34.61056 -57.94631 15123 ft 414 kts 104°
2026-05-01 13:27 -34.62727 -57.87868 16403 ft 423 kts 104°
2026-05-01 13:28 -34.64427 -57.80984 16926 ft 439 kts 104°
2026-05-01 13:28 -34.65325 -57.77332 16932 ft 451 kts 104°
2026-05-01 13:29 -34.67116 -57.70040 16917 ft 451 kts 104°
2026-05-01 13:29 -34.68896 -57.62784 16923 ft 447 kts 104°
2026-05-01 13:30 -34.72402 -57.48395 16852 ft 426 kts 104°
2026-05-01 13:31 -34.74039 -57.41540 16023 ft 418 kts 103°
2026-05-01 13:31 -34.76419 -57.31502 14616 ft 406 kts 103°
2026-05-01 13:32 -34.77969 -57.24963 13664 ft 400 kts 103°
2026-05-01 13:33 -34.80238 -57.15342 12249 ft 391 kts 103°
2026-05-01 13:33 -34.81729 -57.09015 11317 ft 386 kts 103°
2026-05-01 13:34 -34.83187 -57.02813 10691 ft 371 kts 103°
2026-05-01 13:34 -34.84562 -56.96947 10367 ft 350 kts 103°
2026-05-01 13:35 -34.85856 -56.91418 10081 ft 330 kts 103°
2026-05-01 13:35 -34.86477 -56.88759 9949 ft 321 kts 103°
2026-05-01 13:35 -34.87664 -56.83665 9448 ft 312 kts 103°
2026-05-01 13:36 -34.88253 -56.81129 9143 ft 311 kts 103°
2026-05-01 13:36 -34.88838 -56.78604 8828 ft 310 kts 103°
2026-05-01 13:36 -34.89989 -56.73628 8241 ft 306 kts 103°
2026-05-01 13:37 -34.90565 -56.71143 7946 ft 303 kts 103°
2026-05-01 13:37 -34.91143 -56.68643 7648 ft 302 kts 103°
2026-05-01 13:37 -34.91704 -56.66222 7354 ft 300 kts 103°
2026-05-01 13:37 -34.92266 -56.63784 7062 ft 298 kts 103°
2026-05-01 13:38 -34.93381 -56.58953 6481 ft 294 kts 102°
2026-05-01 13:38 -34.93931 -56.56559 6196 ft 291 kts 102°
2026-05-01 13:38 -34.94474 -56.54191 5907 ft 290 kts 102°
2026-05-01 13:39 -34.95015 -56.51836 5622 ft 288 kts 102°
2026-05-01 13:39 -34.95555 -56.49491 5336 ft 286 kts 102°
2026-05-01 13:39 -34.96089 -56.47165 5049 ft 285 kts 102°
2026-05-01 13:39 -34.96619 -56.44845 4774 ft 282 kts 102°
2026-05-01 13:40 -34.97144 -56.42555 4485 ft 279 kts 102°
2026-05-01 13:40 -34.97663 -56.40282 4210 ft 277 kts 102°
2026-05-01 13:40 -34.98180 -56.38026 3946 ft 275 kts 102°
2026-05-01 13:40 -34.98692 -56.35785 3668 ft 273 kts 101°
2026-05-01 13:41 -34.99199 -56.33558 3383 ft 271 kts 101°
2026-05-01 13:41 -34.99668 -56.31377 3125 ft 266 kts 94°
2026-05-01 13:41 -34.99488 -56.29238 3028 ft 247 kts 64°
2026-05-01 13:41 -34.98687 -56.27432 2997 ft 239 kts 50°
2026-05-01 13:42 -34.97697 -56.25822 2991 ft 235 kts 49°
2026-05-01 13:42 -34.96743 -56.24241 2982 ft 229 kts 49°
2026-05-01 13:42 -34.95815 -56.22709 2985 ft 220 kts 49°
2026-05-01 13:42 -34.94921 -56.21241 2978 ft 212 kts 49°
2026-05-01 13:43 -34.94055 -56.19823 2973 ft 207 kts 48°
2026-05-01 13:43 -34.93211 -56.18443 2986 ft 198 kts 48°
2026-05-01 13:43 -34.92392 -56.17100 2752 ft 198 kts 47°
2026-05-01 13:43 -34.91552 -56.15730 2497 ft 206 kts 49°
2026-05-01 13:44 -34.90676 -56.14301 2217 ft 213 kts 51°
2026-05-01 13:44 -34.89816 -56.12884 1954 ft 201 kts 51°
2026-05-01 13:44 -34.89016 -56.11571 1679 ft 185 kts 51°
2026-05-01 13:44 -34.88277 -56.10364 1429 ft 170 kts 51°
2026-05-01 13:45 -34.87610 -56.09267 1225 ft 153 kts 51°
2026-05-01 13:45 -34.87001 -56.08269 1024 ft 141 kts 52°
2026-05-01 13:45 -34.86424 -56.07322 841 ft 137 kts 51°
2026-05-01 13:45 -34.85859 -56.06399 674 ft 135 kts 50°
2026-05-01 13:46 -34.85300 -56.05480 479 ft 134 kts 51°
2026-05-01 13:46 -34.84745 -56.04573 298 ft 135 kts 51°
2026-05-01 13:46 -34.84181 -56.03646 86 ft 134 kts 52°
2026-05-01 13:46 -34.83690 -56.02844 86 ft 95 kts 54°
2026-05-01 13:47 -34.83417 -56.02391 90 ft 49 kts 53°
2026-05-01 13:47 -34.83255 -56.02122 75 ft 31 kts 54°
2026-05-01 13:47 -34.83205 -56.02000 84 ft 8 kts 101°
2026-05-01 13:47 -34.83237 -56.01948 79 ft 8 kts 140°
2026-05-01 13:48 -34.83280 -56.01911 82 ft 7 kts 146°
2026-05-01 13:48 -34.83322 -56.01875 84 ft 8 kts 142°
2026-05-01 13:48 -34.83379 -56.01824 70 ft 14 kts 143°
2026-05-01 13:48 -34.83456 -56.01752 69 ft 12 kts 135°
2026-05-01 13:49 -34.83509 -56.01683 68 ft 9 kts 141°
2026-05-01 13:49 -34.83541 -56.01655 68 ft 0 kts 144°
2026-05-01 13:49 -34.83545 -56.01651 69 ft 1 kts 144°
2026-05-01 13:49 -34.83547 -56.01648 73 ft 0 kts 143°